Time,TemperatureF,DewpointF,PressureIn,WindDirection,WindDirectionDegrees,WindSpeedMPH,WindSpeedGustMPH,Humidity,HourlyPrecipIn,Conditions,Clouds,dailyrainin,SolarRadiationWatts/m^2,SoftwareType,DateUTC
2013-05-14 00:04:00,64.3,54.7,30.03,SSW,202,4.0,5.0,71,0.00,,,0.00,0,Wunderground v.1.15,2013-05-14 05:04:00,
2013-05-14 00:14:00,64.4,54.8,30.03,SSW,197,4.0,6.0,71,0.00,,,0.00,0,Wunderground v.1.15,2013-05-14 05:14:00,
2013-05-14 00:24:00,64.5,54.9,30.03,SW,222,5.0,5.0,71,0.00,,,0.00,0,Wunderground v.1.15,2013-05-14 05:24:00,
2013-05-14 00:34:00,64.4,55.2,30.03,South,190,4.0,5.0,72,0.00,,,0.00,0,Wunderground v.1.15,2013-05-14 05:34:00,
2013-05-14 00:39:00,64.4,55.2,30.02,South,190,5.0,5.0,72,0.00,,,0.00,0,Wunderground v.1.15,2013-05-14 05:39:00,
2013-05-14 00:49:00,64.2,55.0,30.02,SSW,195,4.0,4.0,72,0.00,,,0.00,0,Wunderground v.1.15,2013-05-14 05:49:00,
2013-05-14 00:59:00,64.0,55.2,30.02,SSW,200,4.0,5.0,73,0.00,,,0.00,0,Wunderground v.1.15,2013-05-14 05:59:00,
2013-05-14 01:04:00,64.0,55.2,30.02,SSW,196,4.0,5.0,73,0.00,,,0.00,0,Wunderground v.1.15,2013-05-14 06:04:00,
2013-05-14 01:14:00,64.0,55.2,30.02,SSW,200,5.0,5.0,73,0.00,,,0.00,0,Wunderground v.1.15,2013-05-14 06:14:00,
2013-05-14 01:19:00,64.0,55.2,30.01,SSW,204,5.0,5.0,73,0.00,,,0.00,0,Wunderground v.1.15,2013-05-14 06:19:00,
2013-05-14 01:29:00,64.0,55.2,30.01,SSW,205,5.0,5.0,73,0.00,,,0.00,0,Wunderground v.1.15,2013-05-14 06:29:00,
2013-05-14 01:34:00,64.0,55.2,30.01,SSW,206,5.0,5.0,73,0.00,,,0.00,0,Wunderground v.1.15,2013-05-14 06:34:00,
2013-05-14 01:44:00,64.1,54.9,30.00,SSW,198,6.0,9.0,72,0.00,,,0.00,0,Wunderground v.1.15,2013-05-14 06:44:00,
2013-05-14 01:54:00,64.3,55.1,30.00,SSW,200,6.0,8.0,72,0.00,,,0.00,0,Wunderground v.1.15,2013-05-14 06:54:00,
2013-05-14 02:04:00,64.4,55.2,29.99,SSW,196,6.0,7.0,72,0.00,,,0.00,0,Wunderground v.1.15,2013-05-14 07:04:00,
2013-05-14 02:09:00,64.5,55.3,29.99,SSW,204,6.0,8.0,72,0.00,,,0.00,0,Wunderground v.1.15,2013-05-14 07:09:00,
2013-05-14 02:19:00,64.6,55.4,29.99,SSW,202,7.0,7.0,72,0.00,,,0.00,0,Wunderground v.1.15,2013-05-14 07:19:00,
2013-05-14 02:29:00,64.6,55.4,29.98,SSW,213,7.0,9.0,72,0.00,,,0.00,0,Wunderground v.1.15,2013-05-14 07:29:00,
2013-05-14 02:34:00,64.5,55.3,29.98,SW,222,8.0,9.0,72,0.00,,,0.00,0,Wunderground v.1.15,2013-05-14 07:34:00,
2013-05-14 02:44:00,64.1,55.3,29.98,SSW,201,6.0,7.0,73,0.00,,,0.00,0,Wunderground v.1.15,2013-05-14 07:44:00,
2013-05-14 02:49:00,64.0,55.2,29.98,South,184,6.0,10.0,73,0.00,,,0.00,0,Wunderground v.1.15,2013-05-14 07:49:00,
2013-05-14 02:59:00,64.0,55.2,29.97,South,186,8.0,8.0,73,0.00,,,0.00,0,Wunderground v.1.15,2013-05-14 07:59:00,
2013-05-14 03:09:00,64.2,55.4,29.97,SSE,168,8.0,8.0,73,0.00,,,0.00,0,Wunderground v.1.15,2013-05-14 08:09:00,
2013-05-14 03:19:00,64.7,55.8,29.97,SSW,199,10.0,10.0,73,0.00,,,0.00,0,Wunderground v.1.15,2013-05-14 08:19:00,
2013-05-14 03:29:00,65.1,55.8,29.97,SW,216,10.0,10.0,72,0.00,,,0.00,0,Wunderground v.1.15,2013-05-14 08:29:00,
2013-05-14 03:34:00,65.4,55.7,29.96,SSW,213,11.0,12.0,71,0.00,,,0.00,0,Wunderground v.1.15,2013-05-14 08:34:00,
2013-05-14 03:44:00,65.6,55.9,29.97,SW,229,11.0,12.0,71,0.00,,,0.00,0,Wunderground v.1.15,2013-05-14 08:44:00,
2013-05-14 03:54:00,65.6,55.9,29.97,SSW,199,10.0,11.0,71,0.00,,,0.00,0,Wunderground v.1.15,2013-05-14 08:54:00,
2013-05-14 03:59:00,65.4,55.7,29.97,SW,214,9.0,14.0,71,0.00,,,0.00,0,Wunderground v.1.15,2013-05-14 08:59:00,
2013-05-14 04:09:00,65.2,55.9,29.97,SSW,213,10.0,10.0,72,0.00,,,0.00,0,Wunderground v.1.15,2013-05-14 09:09:00,
2013-05-14 04:14:00,65.0,55.8,29.97,SSW,200,9.0,10.0,72,0.00,,,0.00,0,Wunderground v.1.15,2013-05-14 09:14:00,
2013-05-14 04:24:00,64.7,55.8,29.96,SW,218,9.0,9.0,73,0.00,,,0.00,0,Wunderground v.1.15,2013-05-14 09:24:00,
2013-05-14 04:34:00,64.4,55.6,29.96,SW,215,8.0,13.0,73,0.00,,,0.00,0,Wunderground v.1.15,2013-05-14 09:34:00,
2013-05-14 04:44:00,64.5,55.7,29.96,South,185,9.0,9.0,73,0.00,,,0.00,0,Wunderground v.1.15,2013-05-14 09:44:00,
2013-05-14 04:53:00,64.3,55.5,29.96,SSW,209,8.0,8.0,73,0.00,,,0.00,0,Wunderground v.1.15,2013-05-14 09:53:00,
2013-05-14 04:59:00,64.4,55.6,29.96,SSW,205,8.0,9.0,73,0.00,,,0.00,0,Wunderground v.1.15,2013-05-14 09:59:00,
2013-05-14 05:09:00,64.4,55.6,29.95,SW,216,9.0,14.0,73,0.00,,,0.00,0,Wunderground v.1.15,2013-05-14 10:09:00,
2013-05-14 05:19:00,64.4,55.6,29.95,SW,220,9.0,11.0,73,0.00,,,0.00,0,Wunderground v.1.15,2013-05-14 10:19:00,
2013-05-14 05:28:00,64.6,55.4,29.96,SSW,198,9.0,9.0,72,0.00,,,0.00,0,Wunderground v.1.15,2013-05-14 10:28:00,
2013-05-14 05:34:00,64.7,55.5,29.96,SW,216,10.0,17.0,72,0.00,,,0.00,0,Wunderground v.1.15,2013-05-14 10:34:00,
2013-05-14 05:44:00,65.2,55.2,29.96,SW,232,11.0,11.0,70,0.00,,,0.00,0,Wunderground v.1.15,2013-05-14 10:44:00,
2013-05-14 05:53:00,65.2,55.2,29.96,SW,215,10.0,11.0,70,0.00,,,0.00,0,Wunderground v.1.15,2013-05-14 10:53:00,
2013-05-14 06:05:00,65.6,54.8,29.96,SW,229,11.0,14.0,68,0.00,,,0.00,7,Wunderground v.1.15,2013-05-14 11:05:00,
2013-05-14 06:14:00,65.7,54.8,29.96,SW,222,11.0,11.0,68,0.00,,,0.00,18,Wunderground v.1.15,2013-05-14 11:14:00,
2013-05-14 06:24:00,65.6,54.8,29.96,SSW,193,11.0,11.0,68,0.00,,,0.00,44,Wunderground v.1.15,2013-05-14 11:24:00,
2013-05-14 06:34:00,65.7,54.8,29.96,SSW,209,10.0,12.0,68,0.00,,,0.00,72,Wunderground v.1.15,2013-05-14 11:34:00,
2013-05-14 06:39:00,65.8,54.9,29.96,SSW,200,10.0,10.0,68,0.00,,,0.00,84,Wunderground v.1.15,2013-05-14 11:39:00,
2013-05-14 06:49:00,66.1,54.8,29.96,SW,219,10.0,11.0,67,0.00,,,0.00,105,Wunderground v.1.15,2013-05-14 11:49:00,
2013-05-14 06:59:00,66.4,54.7,29.96,SSW,199,11.0,11.0,66,0.00,,,0.00,134,Wunderground v.1.15,2013-05-14 11:59:00,
2013-05-14 07:04:00,66.5,54.8,29.96,SW,217,11.0,11.0,66,0.00,,,0.00,146,Wunderground v.1.15,2013-05-14 12:04:00,
2013-05-14 07:14:00,66.9,54.7,29.97,SW,218,10.0,11.0,65,0.00,,,0.00,172,Wunderground v.1.15,2013-05-14 12:14:00,
2013-05-14 07:24:00,67.2,55.0,29.96,SSW,213,10.0,11.0,65,0.00,,,0.00,200,Wunderground v.1.15,2013-05-14 12:24:00,
2013-05-14 07:29:00,67.6,55.0,29.97,SW,226,10.0,12.0,64,0.00,,,0.00,214,Wunderground v.1.15,2013-05-14 12:29:00,
2013-05-14 07:39:00,68.4,54.9,29.97,SW,227,14.0,14.0,62,0.00,,,0.00,244,Wunderground v.1.15,2013-05-14 12:39:00,
2013-05-14 07:49:00,68.7,54.7,29.96,WSW,238,13.0,13.0,61,0.00,,,0.00,290,Wunderground v.1.15,2013-05-14 12:49:00,
2013-05-14 07:59:00,69.3,54.8,29.96,WSW,250,14.0,16.0,60,0.00,,,0.00,322,Wunderground v.1.15,2013-05-14 12:59:00,
2013-05-14 08:04:00,69.7,54.7,29.96,WSW,242,15.0,16.0,59,0.00,,,0.00,341,Wunderground v.1.15,2013-05-14 13:04:00,
2013-05-14 08:14:00,70.3,54.8,29.97,SW,217,13.0,15.0,58,0.00,,,0.00,373,Wunderground v.1.15,2013-05-14 13:14:00,
2013-05-14 08:19:00,70.7,55.2,29.97,SW,226,12.0,12.0,58,0.00,,,0.00,392,Wunderground v.1.15,2013-05-14 13:19:00,
2013-05-14 08:29:00,71.5,55.5,29.97,SW,222,11.0,11.0,57,0.00,,,0.00,422,Wunderground v.1.15,2013-05-14 13:29:00,
2013-05-14 08:39:00,72.5,54.9,29.97,SW,225,11.0,11.0,54,0.00,,,0.00,457,Wunderground v.1.15,2013-05-14 13:39:00,
2013-05-14 08:49:00,73.4,54.7,29.97,SW,236,12.0,12.0,52,0.00,,,0.00,489,Wunderground v.1.15,2013-05-14 13:49:00,
2013-05-14 08:59:00,74.0,55.8,29.97,SW,222,10.0,12.0,53,0.00,,,0.00,522,Wunderground v.1.15,2013-05-14 13:59:00,
2013-05-14 09:04:00,74.2,55.4,29.97,SW,225,10.0,12.0,52,0.00,,,0.00,538,Wunderground v.1.15,2013-05-14 14:04:00,
2013-05-14 09:14:00,74.7,55.4,29.97,WSW,248,10.0,10.0,51,0.00,,,0.00,573,Wunderground v.1.15,2013-05-14 14:14:00,
2013-05-14 09:24:00,75.3,57.0,29.97,SW,218,10.0,16.0,53,0.00,,,0.00,605,Wunderground v.1.15,2013-05-14 14:24:00,
2013-05-14 09:29:00,75.5,56.1,29.97,SW,227,10.0,11.0,51,0.00,,,0.00,622,Wunderground v.1.15,2013-05-14 14:29:00,
2013-05-14 09:39:00,76.3,55.7,29.96,SW,224,10.0,12.0,49,0.00,,,0.00,650,Wunderground v.1.15,2013-05-14 14:39:00,
2013-05-14 09:49:00,76.7,56.1,29.96,SW,220,11.0,13.0,49,0.00,,,0.00,682,Wunderground v.1.15,2013-05-14 14:49:00,
2013-05-14 09:54:00,77.2,56.6,29.96,SW,217,10.0,13.0,49,0.00,,,0.00,696,Wunderground v.1.15,2013-05-14 14:54:00,
2013-05-14 10:04:00,77.9,56.0,29.96,SW,236,11.0,12.0,47,0.00,,,0.00,722,Wunderground v.1.15,2013-05-14 15:04:00,
2013-05-14 10:09:00,78.4,55.3,29.96,SW,220,11.0,11.0,45,0.00,,,0.00,735,Wunderground v.1.15,2013-05-14 15:09:00,
2013-05-14 10:19:00,79.0,56.5,29.96,SSW,209,11.0,11.0,46,0.00,,,0.00,765,Wunderground v.1.15,2013-05-14 15:19:00,
2013-05-14 10:29:00,79.3,55.5,29.96,SSW,198,13.0,13.0,44,0.00,,,0.00,789,Wunderground v.1.15,2013-05-14 15:29:00,
2013-05-14 10:39:00,80.5,55.9,29.97,South,175,10.0,10.0,43,0.00,,,0.00,812,Wunderground v.1.15,2013-05-14 15:39:00,
2013-05-14 10:49:00,80.7,55.5,29.97,SW,217,12.0,15.0,42,0.00,,,0.00,837,Wunderground v.1.15,2013-05-14 15:49:00,
2013-05-14 10:59:00,80.9,55.7,29.97,SW,233,12.0,14.0,42,0.00,,,0.00,858,Wunderground v.1.15,2013-05-14 15:59:00,
2013-05-14 11:04:00,81.2,54.6,29.97,SW,223,11.0,14.0,40,0.00,,,0.00,868,Wunderground v.1.15,2013-05-14 16:04:00,
2013-05-14 11:14:00,81.2,56.6,29.97,SW,222,12.0,18.0,43,0.00,,,0.00,884,Wunderground v.1.15,2013-05-14 16:14:00,
2013-05-14 11:24:00,81.8,57.1,29.97,SSW,205,12.0,13.0,43,0.00,,,0.00,905,Wunderground v.1.15,2013-05-14 16:24:00,
2013-05-14 11:34:00,82.0,56.6,29.97,SW,219,12.0,17.0,42,0.00,,,0.00,919,Wunderground v.1.15,2013-05-14 16:34:00,
2013-05-14 11:39:00,82.0,57.3,29.97,SW,225,13.0,14.0,43,0.00,,,0.00,926,Wunderground v.1.15,2013-05-14 16:39:00,
2013-05-14 11:49:00,82.3,56.2,29.97,SW,216,13.0,14.0,41,0.00,,,0.00,940,Wunderground v.1.15,2013-05-14 16:49:00,
2013-05-14 11:59:00,83.3,57.1,29.97,SW,220,10.0,17.0,41,0.00,,,0.00,949,Wunderground v.1.15,2013-05-14 16:59:00,
2013-05-14 12:09:00,83.2,57.1,29.97,WSW,243,13.0,13.0,41,0.00,,,0.00,958,Wunderground v.1.15,2013-05-14 17:09:00,
2013-05-14 12:14:00,83.6,57.4,29.97,West,271,12.0,13.0,41,0.00,,,0.00,967,Wunderground v.1.15,2013-05-14 17:14:00,
2013-05-14 12:24:00,83.5,56.6,29.96,SW,214,14.0,14.0,40,0.00,,,0.00,976,Wunderground v.1.15,2013-05-14 17:24:00,
2013-05-14 12:29:00,83.6,56.0,29.96,SSW,205,14.0,14.0,39,0.00,,,0.00,979,Wunderground v.1.15,2013-05-14 17:29:00,
2013-05-14 12:39:00,84.2,56.6,29.96,SSW,204,13.0,19.0,39,0.00,,,0.00,990,Wunderground v.1.15,2013-05-14 17:39:00,
2013-05-14 12:44:00,83.9,57.0,29.96,SSW,213,15.0,19.0,40,0.00,,,0.00,990,Wunderground v.1.15,2013-05-14 17:44:00,
2013-05-14 12:54:00,83.8,56.9,29.96,SW,223,15.0,16.0,40,0.00,,,0.00,993,Wunderground v.1.15,2013-05-14 17:54:00,
2013-05-14 12:59:00,84.2,57.9,29.96,SSW,209,15.0,15.0,41,0.00,,,0.00,993,Wunderground v.1.15,2013-05-14 17:59:00,
2013-05-14 13:09:00,84.7,56.3,29.96,SSW,210,14.0,14.0,38,0.00,,,0.00,993,Wunderground v.1.15,2013-05-14 18:09:00,
2013-05-14 13:18:00,85.4,58.3,29.95,SW,221,13.0,17.0,40,0.00,,,0.00,995,Wunderground v.1.15,2013-05-14 18:18:00,
2013-05-14 13:24:00,85.4,56.9,29.95,SW,219,13.0,17.0,38,0.00,,,0.00,993,Wunderground v.1.15,2013-05-14 18:24:00,
2013-05-14 13:34:00,85.6,57.1,29.95,SW,217,16.0,17.0,38,0.00,,,0.00,988,Wunderground v.1.15,2013-05-14 18:34:00,
2013-05-14 13:43:00,86.4,57.0,29.94,SW,232,14.0,17.0,37,0.00,,,0.00,984,Wunderground v.1.15,2013-05-14 18:43:00,
2013-05-14 13:49:00,86.4,57.8,29.94,SSW,209,14.0,14.0,38,0.00,,,0.00,984,Wunderground v.1.15,2013-05-14 18:49:00,
2013-05-14 13:58:00,86.9,58.2,29.94,SW,220,14.0,14.0,38,0.00,,,0.00,976,Wunderground v.1.15,2013-05-14 18:58:00,
2013-05-14 14:04:00,87.5,60.2,29.94,WSW,242,11.0,14.0,40,0.00,,,0.00,967,Wunderground v.1.15,2013-05-14 19:04:00,
2013-05-14 14:09:00,87.8,59.0,29.94,WSW,242,10.0,10.0,38,0.00,,,0.00,962,Wunderground v.1.15,2013-05-14 19:09:00,
2013-05-14 14:15:00,88.1,58.6,29.93,SW,214,10.0,13.0,37,0.00,,,0.00,631,Wunderground v.1.15,2013-05-14 19:15:00,
2013-05-14 14:25:00,87.7,58.2,29.93,SW,228,13.0,16.0,37,0.00,,,0.00,947,Wunderground v.1.15,2013-05-14 19:25:00,
2013-05-14 14:34:00,88.1,57.0,29.93,SW,235,15.0,19.0,35,0.00,,,0.00,907,Wunderground v.1.15,2013-05-14 19:34:00,
2013-05-14 14:44:00,88.3,58.0,29.93,SW,229,14.0,16.0,36,0.00,,,0.00,888,Wunderground v.1.15,2013-05-14 19:44:00,
2013-05-14 14:54:00,88.5,57.4,29.92,SW,217,14.0,16.0,35,0.00,,,0.00,907,Wunderground v.1.15,2013-05-14 19:54:00,
2013-05-14 14:59:00,88.7,58.3,29.93,SSW,205,14.0,15.0,36,0.00,,,0.00,896,Wunderground v.1.15,2013-05-14 19:59:00,
2013-05-14 15:09:00,88.8,58.4,29.92,SW,219,15.0,18.0,36,0.00,,,0.00,881,Wunderground v.1.15,2013-05-14 20:09:00,
2013-05-14 15:19:00,89.7,58.4,29.92,SSW,207,11.0,12.0,35,0.00,,,0.00,858,Wunderground v.1.15,2013-05-14 20:19:00,
2013-05-14 15:24:00,89.1,57.9,29.92,SW,223,14.0,15.0,35,0.00,,,0.00,842,Wunderground v.1.15,2013-05-14 20:24:00,
2013-05-14 15:34:00,89.3,59.6,29.92,WSW,242,14.0,18.0,37,0.00,,,0.00,816,Wunderground v.1.15,2013-05-14 20:34:00,
2013-05-14 15:39:00,89.4,57.3,29.91,SW,223,13.0,13.0,34,0.00,,,0.00,810,Wunderground v.1.15,2013-05-14 20:39:00,
2013-05-14 15:49:00,89.5,58.2,29.91,SW,235,13.0,19.0,35,0.00,,,0.00,789,Wunderground v.1.15,2013-05-14 20:49:00,
2013-05-14 15:54:00,89.8,58.5,29.91,SW,225,12.0,19.0,35,0.00,,,0.00,775,Wunderground v.1.15,2013-05-14 20:54:00,
2013-05-14 16:04:00,89.5,58.2,29.91,SW,225,14.0,16.0,35,0.00,,,0.00,749,Wunderground v.1.15,2013-05-14 21:04:00,
2013-05-14 16:14:00,89.5,59.0,29.90,SSW,196,13.0,13.0,36,0.00,,,0.00,726,Wunderground v.1.15,2013-05-14 21:14:00,
2013-05-14 16:24:00,89.5,58.2,29.90,SSW,211,12.0,14.0,35,0.00,,,0.00,694,Wunderground v.1.15,2013-05-14 21:24:00,
2013-05-14 16:34:00,89.5,58.2,29.90,SW,219,14.0,16.0,35,0.00,,,0.00,670,Wunderground v.1.15,2013-05-14 21:34:00,
2013-05-14 16:44:00,89.4,58.9,29.90,SW,217,13.0,27.0,36,0.00,,,0.00,636,Wunderground v.1.15,2013-05-14 21:44:00,
2013-05-14 16:49:00,89.3,58.1,29.90,SW,220,15.0,18.0,35,0.00,,,0.00,621,Wunderground v.1.15,2013-05-14 21:49:00,
2013-05-14 16:59:00,89.3,57.3,29.88,SSW,205,18.0,18.0,34,0.00,,,0.00,592,Wunderground v.1.15,2013-05-14 21:59:00,
2013-05-14 17:09:00,89.3,58.8,29.90,SW,217,14.0,14.0,36,0.00,,,0.00,561,Wunderground v.1.15,2013-05-14 22:09:00,
2013-05-14 17:19:00,89.2,59.5,29.89,SSW,209,12.0,14.0,37,0.00,,,0.00,527,Wunderground v.1.15,2013-05-14 22:19:00,
2013-05-14 17:29:00,88.6,58.2,29.83,SW,219,13.0,21.0,36,0.00,,,0.00,496,Wunderground v.1.15,2013-05-14 22:29:00,
2013-05-14 17:34:00,88.4,58.1,29.89,SW,217,13.0,21.0,36,0.00,,,0.00,478,Wunderground v.1.15,2013-05-14 22:34:00,
2013-05-14 17:44:00,88.3,57.2,29.89,SSW,212,14.0,15.0,35,0.00,,,0.00,443,Wunderground v.1.15,2013-05-14 22:44:00,
2013-05-14 17:49:00,88.2,57.1,29.89,SW,223,13.0,18.0,35,0.00,,,0.00,427,Wunderground v.1.15,2013-05-14 22:49:00,
2013-05-14 17:59:00,87.9,57.6,29.88,SSW,209,14.0,14.0,36,0.00,,,0.00,390,Wunderground v.1.15,2013-05-14 22:59:00,
2013-05-14 18:09:00,87.4,57.9,29.88,South,185,14.0,16.0,37,0.00,,,0.00,357,Wunderground v.1.15,2013-05-14 23:09:00,
2013-05-14 18:19:00,87.1,59.1,29.45,SW,230,13.0,13.0,39,0.00,,,0.00,322,Wunderground v.1.15,2013-05-14 23:19:00,
2013-05-14 18:24:00,86.9,59.7,29.45,SW,222,12.0,13.0,40,0.00,,,0.00,304,Wunderground v.1.15,2013-05-14 23:24:00,
2013-05-14 18:34:00,86.4,60.6,29.79,SW,216,11.0,14.0,42,0.00,,,0.00,269,Wunderground v.1.15,2013-05-14 23:34:00,
2013-05-14 18:44:00,85.9,59.5,29.88,SW,218,13.0,17.0,41,0.00,,,0.00,236,Wunderground v.1.15,2013-05-14 23:44:00,
2013-05-14 18:54:00,85.4,59.0,29.88,SSW,208,12.0,16.0,41,0.00,,,0.00,202,Wunderground v.1.15,2013-05-14 23:54:00,
2013-05-14 19:04:00,84.9,58.6,29.87,SW,220,12.0,12.0,41,0.00,,,0.00,172,Wunderground v.1.15,2013-05-15 00:04:00,
2013-05-14 19:09:00,84.8,58.5,29.87,SSW,211,12.0,14.0,41,0.00,,,0.00,156,Wunderground v.1.15,2013-05-15 00:09:00,
2013-05-14 19:19:00,84.2,58.6,29.88,WSW,252,11.0,15.0,42,0.00,,,0.00,125,Wunderground v.1.15,2013-05-15 00:19:00,
2013-05-14 19:29:00,83.8,58.9,29.88,SSW,196,11.0,11.0,43,0.00,,,0.00,95,Wunderground v.1.15,2013-05-15 00:29:00,
2013-05-14 19:39:00,83.2,59.6,29.88,SW,220,10.0,10.0,45,0.00,,,0.00,26,Wunderground v.1.15,2013-05-15 00:39:00,
2013-05-14 19:44:00,82.8,59.9,29.88,SW,215,9.0,11.0,46,0.00,,,0.00,25,Wunderground v.1.15,2013-05-15 00:44:00,
2013-05-14 19:54:00,82.1,60.5,29.78,SW,218,8.0,14.0,48,0.00,,,0.00,19,Wunderground v.1.15,2013-05-15 00:54:00,
2013-05-14 20:04:00,81.4,60.4,29.78,SSW,209,8.0,10.0,49,0.00,,,0.00,12,Wunderground v.1.15,2013-05-15 01:04:00,
2013-05-14 20:14:00,80.9,60.5,29.88,SW,226,8.0,12.0,50,0.00,,,0.00,7,Wunderground v.1.15,2013-05-15 01:14:00,
2013-05-14 20:24:00,80.1,60.3,29.72,SSW,204,7.0,9.0,51,0.00,,,0.00,0,Wunderground v.1.15,2013-05-15 01:24:00,
2013-05-14 20:34:00,79.6,60.4,29.72,SSW,212,8.0,8.0,52,0.00,,,0.00,0,Wunderground v.1.15,2013-05-15 01:34:00,
2013-05-14 20:44:00,79.5,59.8,29.72,SSW,212,11.0,13.0,51,0.00,,,0.00,0,Wunderground v.1.15,2013-05-15 01:44:00,
2013-05-14 20:49:00,79.4,59.1,29.55,SSW,200,10.0,10.0,50,0.00,,,0.00,0,Wunderground v.1.15,2013-05-15 01:49:00,
2013-05-14 20:59:00,79.1,58.9,29.55,SSW,201,11.0,11.0,50,0.00,,,0.00,0,Wunderground v.1.15,2013-05-15 01:59:00,
2013-05-14 21:09:00,78.8,59.1,29.55,SSW,211,10.0,11.0,51,0.00,,,0.00,0,Wunderground v.1.15,2013-05-15 02:09:00,
2013-05-14 21:18:00,78.3,58.7,29.90,SW,215,10.0,13.0,51,0.00,,,0.00,0,Wunderground v.1.15,2013-05-15 02:18:00,
2013-05-14 21:24:00,78.0,58.9,29.90,SW,225,10.0,13.0,52,0.00,,,0.00,0,Wunderground v.1.15,2013-05-15 02:24:00,
2013-05-14 21:34:00,78.1,58.5,29.91,SSW,197,11.0,11.0,51,0.00,,,0.00,0,Wunderground v.1.15,2013-05-15 02:34:00,
2013-05-14 21:43:00,77.7,58.7,29.91,SW,236,9.0,14.0,52,0.00,,,0.00,0,Wunderground v.1.15,2013-05-15 02:43:00,
2013-05-14 21:49:00,77.7,58.1,29.91,SSW,204,9.0,9.0,51,0.00,,,0.00,0,Wunderground v.1.15,2013-05-15 02:49:00,
2013-05-14 21:58:00,77.2,58.2,29.92,SSW,204,9.0,9.0,52,0.00,,,0.00,0,Wunderground v.1.15,2013-05-15 02:58:00,
2013-05-14 22:05:00,77.1,58.1,29.92,SW,215,9.0,9.0,52,0.00,,,0.00,0,Wunderground v.1.15,2013-05-15 03:05:00,
2013-05-14 22:15:00,76.5,58.1,29.92,SW,215,8.0,15.0,53,0.00,,,0.00,0,Wunderground v.1.15,2013-05-15 03:15:00,
2013-05-14 22:24:00,76.2,57.8,29.93,SW,223,9.0,9.0,53,0.00,,,0.00,0,Wunderground v.1.15,2013-05-15 03:24:00,
2013-05-14 22:34:00,75.7,57.9,29.93,SW,215,8.0,10.0,54,0.00,,,0.00,0,Wunderground v.1.15,2013-05-15 03:34:00,
2013-05-14 22:39:00,75.4,57.6,29.93,SW,215,8.0,9.0,54,0.00,,,0.00,0,Wunderground v.1.15,2013-05-15 03:39:00,
2013-05-14 22:49:00,75.4,57.6,29.93,SSW,196,10.0,10.0,54,0.00,,,0.00,0,Wunderground v.1.15,2013-05-15 03:49:00,
2013-05-14 22:59:00,74.8,57.5,29.93,SW,216,8.0,8.0,55,0.00,,,0.00,0,Wunderground v.1.15,2013-05-15 03:59:00,
2013-05-14 23:04:00,74.6,56.9,29.93,SSW,208,9.0,9.0,54,0.00,,,0.00,0,Wunderground v.1.15,2013-05-15 04:04:00,
2013-05-14 23:09:00,74.5,56.8,29.93,South,190,9.0,9.0,54,0.00,,,0.00,0,Wunderground v.1.15,2013-05-15 04:09:00,
2013-05-14 23:14:00,74.4,56.7,29.93,SW,223,9.0,10.0,54,0.00,,,0.00,0,Wunderground v.1.15,2013-05-15 04:14:00,
2013-05-14 23:19:00,74.5,56.2,29.93,SSW,202,9.0,9.0,53,0.00,,,0.00,0,Wunderground v.1.15,2013-05-15 04:19:00,
2013-05-14 23:29:00,74.3,56.1,29.93,SW,217,9.0,10.0,53,0.00,,,0.00,0,Wunderground v.1.15,2013-05-15 04:29:00,
2013-05-14 23:39:00,74.3,56.1,29.93,SSW,207,11.0,12.0,53,0.00,,,0.00,0,Wunderground v.1.15,2013-05-15 04:39:00,
2013-05-14 23:49:00,74.3,55.5,29.93,SW,227,10.0,13.0,52,0.00,,,0.00,0,Wunderground v.1.15,2013-05-15 04:49:00,
2013-05-14 23:54:00,74.1,55.9,29.93,SSW,198,10.0,13.0,53,0.00,,,0.00,0,Wunderground v.1.15,2013-05-15 04:54:00,